TimeCDT,TemperatureF,Dew PointF,Humidity,Sea Level PressureIn,VisibilityMPH,Wind Direction,Wind SpeedMPH,Gust SpeedMPH,PrecipitationIn,Events,Conditions,WindDirDegrees,DateUTC
12:53 AM,69.1,62.1,78,29.85,10.0,North,5.8,-,N/A,,Clear,350,2013-07-01 05:53:00
1:53 AM,68.0,62.1,81,29.84,10.0,NNW,4.6,-,N/A,,Clear,330,2013-07-01 06:53:00
2:53 AM,68.0,63.0,84,29.84,10.0,NW,4.6,-,N/A,,Scattered Clouds,320,2013-07-01 07:53:00
3:53 AM,66.9,63.0,87,29.85,10.0,NNW,4.6,-,N/A,,Mostly Cloudy,330,2013-07-01 08:53:00
4:53 AM,66.9,62.1,84,29.86,10.0,North,5.8,-,0.00,Rain,Light Rain,350,2013-07-01 09:53:00
5:53 AM,66.9,62.1,84,29.86,10.0,NNW,3.5,-,0.00,,Scattered Clouds,330,2013-07-01 10:53:00
6:53 AM,68.0,63.0,84,29.87,10.0,NW,5.8,-,N/A,,Scattered Clouds,310,2013-07-01 11:53:00
7:43 AM,69.8,62.6,78,29.90,10.0,NW,6.9,-,N/A,,Mostly Cloudy,320,2013-07-01 12:43:00
7:53 AM,69.1,63.0,81,29.89,10.0,NNW,9.2,-,N/A,,Overcast,330,2013-07-01 12:53:00
8:40 AM,71.6,62.6,73,29.90,10.0,NNW,6.9,-,N/A,,Overcast,340,2013-07-01 13:40:00
8:53 AM,71.1,62.1,73,29.90,10.0,North,9.2,-,N/A,,Mostly Cloudy,360,2013-07-01 13:53:00
9:53 AM,73.9,62.1,66,29.90,10.0,North,8.1,-,N/A,,Scattered Clouds,360,2013-07-01 14:53:00
10:11 AM,75.2,62.6,65,29.91,10.0,North,10.4,-,N/A,,Mostly Cloudy,360,2013-07-01 15:11:00
10:29 AM,75.2,62.6,65,29.91,10.0,NNW,11.5,-,N/A,,Mostly Cloudy,340,2013-07-01 15:29:00
10:53 AM,78.1,63.0,60,29.90,10.0,North,9.2,-,N/A,,Mostly Cloudy,350,2013-07-01 15:53:00
11:53 AM,80.1,61.0,52,29.91,10.0,North,12.7,17.3,N/A,,Scattered Clouds,350,2013-07-01 16:53:00
12:53 PM,77.0,61.0,58,29.90,10.0,North,8.1,17.3,N/A,,Mostly Cloudy,360,2013-07-01 17:53:00
1:53 PM,80.1,61.0,52,29.90,10.0,NNE,12.7,18.4,N/A,,Mostly Cloudy,20,2013-07-01 18:53:00
2:53 PM,84.0,60.1,44,29.89,10.0,NNE,12.7,20.7,0.00,,Scattered Clouds,30,2013-07-01 19:53:00
3:53 PM,82.0,59.0,45,29.89,10.0,NNE,11.5,18.4,N/A,,Partly Cloudy,20,2013-07-01 20:53:00
4:53 PM,82.0,59.0,45,29.89,10.0,North,6.9,-,N/A,,Mostly Cloudy,10,2013-07-01 21:53:00
5:53 PM,78.1,60.1,54,29.90,10.0,NNW,6.9,-,0.00,Rain,Light Rain,340,2013-07-01 22:53:00
6:53 PM,78.1,61.0,56,29.91,10.0,NNE,4.6,-,0.00,,Scattered Clouds,30,2013-07-01 23:53:00
7:53 PM,73.9,61.0,64,29.93,10.0,NE,4.6,-,N/A,,Partly Cloudy,50,2013-07-02 00:53:00
8:53 PM,73.0,61.0,66,29.94,10.0,Calm,Calm,-,0.01,,Partly Cloudy,0,2013-07-02 01:53:00
9:53 PM,72.0,61.0,68,29.95,10.0,Calm,Calm,-,N/A,,Scattered Clouds,0,2013-07-02 02:53:00
10:53 PM,71.1,57.9,63,29.95,10.0,North,5.8,-,N/A,,Scattered Clouds,10,2013-07-02 03:53:00
11:53 PM,69.1,57.9,68,29.94,10.0,North,3.5,-,N/A,,Clear,360,2013-07-02 04:53:00